Theta_e
314 313 312 311 310 313 311 312 308 310 310 320 320 323 332 336 336 335 334 334 337 336 340 343 345 346 348 348 351 349 350 351 353 357 357 355 354 353 353 353 351 353 351 352
312 314 314 311 313 313 313 313 312 311 310 323 322 337 335 332 334 333 334 335 335 338 338 340 342 345 344 346 349 352 349 347 352 354 354 354 354 352 352 350 348 349 349 348
309 313 312 308 313 312 312 313 311 307 317 325 324 323 333 334 334 332 334 333 337 335 337 339 338 340 338 345 347 350 348 347 349 350 349 350 349 349 348 347 348 346 346 347
308 310 300 311 318 316 312 313 313 315 319 324 326 328 332 337 333 333 334 334 335 333 334 338 335 335 340 340 346 348 348 347 348 348 347 348 348 346 346 345 344 344 345 345
305 305 309 311 314 313 311 311 316 316 321 323 327 327 331 336 337 337 335 335 331 335 337 339 337 341 342 341 343 344 343 345 347 348 346 345 342 342 342 340 340 341 343 344
308 302 299 312 316 318 316 306 320 318 321 322 321 316 325 332 331 334 334 333 331 331 332 332 339 338 339 337 338 338 339 342 343 343 341 338 339 337 337 337 337 339 339 340
308 304 308 316 318 319 305 311 321 321 323 323 322 325 327 329 329 329 329 329 331 331 332 334 336 335 336 335 333 338 339 340 340 340 339 338 336 336 336 336 336 336 337 339
308 307 303 320 317 312 321 324 323 325 325 325 327 327 326 326 326 326 326 327 327 329 330 332 334 333 332 332 334 335 334 333 334 336 334 331 332 332 333 332 331 331 333 334
311 313 323 323 322 323 325 325 324 324 324 324 323 323 324 324 324 324 324 327 326 327 328 330 329 328 326 327 330 332 331 331 331 332 331 331 330 330 329 330 328 328 329 329
313 317 320 321 322 324 325 324 325 324 323 323 322 322 322 322 322 322 324 325 325 323 321 321 323 323 324 323 323 324 325 326 325 323 322 325 325 325 325 326 326 327 326 324
314 321 321 321 323 324 323 324 323 323 323 322 321 321 321 321 321 320 320 320 319 318 317 316 317 319 318 320 319 317 319 319 319 320 319 319 320 322 323 326 323 323 323 324
311 324 324 323 324 324 322 323 323 321 321 322 320 319 318 316 318 317 316 317 316 316 314 315 314 315 316 317 314 313 311 312 314 314 313 313 314 315 315 311 309 306 304 309
320 325 324 325 325 325 324 323 321 320 320 317 317 316 316 315 316 314 315 314 313 311 313 313 313 312 314 314 314 313 311 311 311 311 313 313 313 314 314 317 310 307 306 303
322 324 323 323 321 323 323 321 317 319 318 317 315 315 314 314 315 315 312 312 313 313 312 312 311 311 313 313 314 312 310 308 310 310 310 310 309 310 311 310 312 316 313 308
323 324 323 325 324 322 321 319 317 316 315 313 314 314 315 314 313 312 313 312 312 311 311 311 310 310 313 312 311 311 310 308 308 309 309 309 309 308 309 309 309 311 314 312
321 324 324 322 321 320 318 317 315 313 312 313 314 315 315 315 314 312 312 312 310 309 310 312 310 311 312 311 309 308 308 310 310 309 309 308 308 307 307 307 308 309 310 310
319 319 320 320 319 319 316 315 313 312 312 313 314 314 314 314 313 311 311 311 311 311 312 313 313 314 314 312 311 309 309 308 308 306 305 305 304 304 303 303 303 305 307 309
324 324 323 323 321 318 315 312 312 313 312 314 315 314 313 312 311 311 311 313 313 313 315 314 314 312 313 312 310 308 307 306 305 303 302 301 300 301 300 300 301 303 304 306
325 322 321 320 319 316 314 312 312 313 314 315 314 313 313 312 312 312 312 312 314 312 311 313 313 313 312 309 308 306 304 302 301 300 299 299 299 299 299 298 299 301 301 303
321 321 319 317 316 314 312 312 312 313 314 314 314 313 311 311 312 312 314 314 313 310 312 309 310 311 309 307 307 303 302 300 298 297 296 295 295 296 296 296 297 298 300 303
320 319 317 315 314 314 314 314 312 311 312 312 311 311 311 312 313 315 314 307 316 311 310 311 311 308 308 306 304 302 300 298 297 294 293 292 293 293 294 294 296 297 299 301
320 318 316 315 313 313 314 315 314 313 311 310 311 311 311 312 314 315 317 312 311 308 309 309 310 306 306 306 304 300 299 298 296 294 292 291 291 291 292 294 295 296 298 299
320 318 316 315 314 315 315 316 315 315 311 310 310 310 310 309 310 308 306 315 311 309 308 310 306 305 305 307 304 300 299 299 297 295 293 292 291 291 292 293 294 295 296 297
321 320 318 317 316 315 315 317 316 317 316 313 312 312 311 308 309 311 312 310 308 307 309 309 307 306 306 308 305 301 300 299 298 296 295 293 292 291 292 292 293 294 294 295
323 320 317 316 315 314 317 317 316 317 316 316 314 316 316 313 312 311 312 312 309 308 310 308 308 308 309 308 306 302 300 299 298 297 295 294 292 292 293 293 293 293 293 293
320 315 315 318 316 318 317 315 313 313 311 311 312 313 313 314 316 313 316 311 315 310 312 311 311 309 307 306 305 306 301 299 298 297 295 294 293 292 292 292 292 293 292 292
320 312 317 315 316 316 316 313 313 312 311 310 310 313 314 314 313 312 310 314 312 312 312 311 309 308 307 307 307 308 306 300 297 297 296 294 293 292 292 292 292 292 291 292
Wind_Speed
7 16 23 19 2 24 10 11 12 15 18 20 26 27 21 23 17 12 11 12 12 11 8 7 6 6 6 5 4 5 4 4 3 3 4 4 5 6 7 7 7 7 8 8
19 22 29 30 18 15 14 14 16 13 12 16 14 18 23 15 17 15 13 12 12 11 9 8 7 6 5 3 2 2 2 3 4 4 4 4 4 5 6 7 9 9 9 8
11 13 19 24 21 4 7 12 11 9 11 12 12 9 9 16 14 13 12 12 5 9 7 7 5 4 3 5 3 2 2 3 4 4 5 5 6 7 7 8 9 10 11 9
8 10 12 13 7 1 5 8 9 4 8 9 10 9 15 16 11 10 10 7 5 4 4 5 3 5 6 6 5 3 4 4 5 5 6 6 7 7 8 9 10 10 11 10
6 10 14 14 6 4 0 5 7 0 6 3 6 3 14 14 14 11 10 6 3 2 2 3 4 5 4 5 5 6 6 5 5 6 6 6 8 8 9 11 11 11 11 11
9 11 15 16 9 9 8 4 10 4 7 8 2 3 8 9 6 9 6 3 2 4 7 7 6 7 6 7 6 7 7 6 6 6 7 8 9 10 11 12 13 11 13 13
8 10 10 5 10 4 5 6 7 5 6 4 10 9 7 9 10 10 10 10 10 8 7 7 7 8 7 8 9 9 10 8 8 8 9 10 11 10 10 11 12 12 13 12
10 13 6 11 4 4 4 5 7 12 12 10 11 7 6 7 7 8 9 10 11 9 9 11 13 13 12 11 11 10 10 11 10 9 9 11 13 12 13 12 14 12 13 11
6 5 4 7 7 6 10 10 8 8 10 8 7 9 9 8 10 11 12 11 12 13 13 12 14 13 13 13 16 14 11 11 11 10 9 11 11 12 10 10 12 11 9 9
6 8 6 5 5 6 9 12 11 11 9 8 7 8 9 9 10 10 10 11 11 12 12 12 12 13 13 13 14 14 13 12 10 10 10 11 10 11 9 9 9 9 8 6
6 9 7 5 7 9 11 10 11 8 8 8 7 7 8 9 9 9 9 11 10 11 10 11 11 11 13 12 12 11 11 12 12 11 12 12 11 9 10 11 10 11 11 8
3 8 4 9 11 9 9 8 7 5 6 7 6 7 7 7 8 9 9 9 9 10 9 10 9 9 10 9 11 12 10 10 9 10 9 10 10 12 14 16 18 16 17 13
3 6 6 12 9 6 9 5 5 4 7 4 6 6 8 8 8 7 9 10 10 10 10 10 9 10 10 12 12 13 12 13 10 11 11 11 11 11 12 11 15 14 16 16
2 9 10 11 8 7 6 6 6 5 6 6 6 5 6 6 6 9 8 7 9 9 7 7 10 10 8 10 10 11 12 14 11 11 10 11 11 11 11 12 13 12 11 9
9 7 10 12 10 8 4 3 0 4 5 4 4 7 6 6 6 6 6 7 7 8 7 6 7 8 11 11 12 13 12 10 10 10 11 12 12 12 11 12 11 12 12 12
10 11 12 10 8 5 1 4 2 5 3 4 5 6 5 5 5 4 6 7 9 8 9 9 7 10 7 9 11 11 12 18 17 11 11 12 11 10 10 11 11 10 11 13
9 9 8 7 6 5 3 5 3 3 3 4 5 4 4 6 6 7 7 6 6 9 10 9 10 7 9 9 12 11 11 13 21 13 11 10 9 11 10 12 11 12 11 11
7 8 6 9 8 6 5 3 3 2 3 2 3 3 4 4 5 6 7 8 7 8 5 7 9 8 9 9 11 12 12 13 12 11 11 12 11 11 11 11 13 12 11 12
12 10 9 8 7 6 5 3 3 3 2 2 3 3 4 5 5 7 8 9 9 7 9 11 9 11 9 15 17 11 12 12 13 12 12 16 11 11 9 11 12 11 12 12
12 10 10 9 8 7 6 3 2 2 3 2 3 4 5 6 5 7 8 8 6 6 8 15 13 4 10 14 19 11 13 13 13 13 11 12 12 11 10 13 12 11 12 10
11 10 10 8 7 6 5 4 2 3 3 3 3 4 5 7 5 6 6 7 7 5 10 13 4 5 8 11 12 12 12 12 12 12 12 11 11 11 10 11 10 10 11 10
11 10 9 9 7 6 3 4 4 2 2 2 3 4 5 8 6 6 4 5 7 5 9 9 5 3 6 10 9 10 11 12 11 10 10 11 10 10 10 10 10 10 10 10
9 9 9 8 7 7 6 4 5 4 1 2 3 4 5 7 6 6 7 7 6 7 9 8 3 5 9 5 6 7 10 12 11 11 10 10 10 10 10 10 10 10 10 10
9 8 7 7 6 5 6 7 5 6 4 3 7 2 6 6 6 7 7 7 6 6 9 2 2 10 11 7 5 5 9 11 11 11 11 13 9 9 9 9 9 9 9 10
8 8 8 7 7 7 6 6 6 5 8 8 7 8 7 2 3 5 4 7 6 4 9 1 9 10 7 8 6 4 7 9 10 10 11 10 10 10 9 9 9 9 9 9
10 8 8 8 7 4 9 7 2 5 3 2 1 1 4 4 3 6 7 4 6 7 7 7 8 8 8 8 8 6 5 8 10 11 11 10 10 10 10 10 10 10 9 9
8 7 7 7 7 6 2 6 3 5 3 5 5 4 4 5 3 5 6 7 8 8 7 8 9 8 7 7 8 5 5 5 8 10 10 10 10 10 10 10 10 9 9 9
Wind_Direction
204 199 225 246 308 271 311 319 315 321 320 155 180 179 218 150 131 121 118 116 108 114 115 120 122 115 108 93 68 60 52 21 358 351 350 344 331 317 314 312 308 309 300 291
179 177 208 242 264 274 299 293 280 295 304 21 71 153 163 126 138 148 143 130 143 141 159 152 155 159 116 95 104 37 340 316 345 351 333 306 298 293 287 286 286 282 282 285
290 188 205 224 235 304 340 348 353 314 35 12 355 23 130 140 147 138 136 116 156 152 165 162 169 156 211 179 139 208 294 285 286 279 275 271 267 265 268 269 271 266 266 266
306 309 281 282 73 20 305 302 295 340 17 36 10 7 62 92 85 87 104 83 150 119 132 142 199 17 22 2 353 308 273 279 269 261 262 266 272 282 284 278 271 269 262 258
306 295 301 303 360 154 200 346 108 76 96 94 39 354 62 90 106 108 114 97 13 223 235 66 2 342 308 288 291 280 273 276 286 282 296 313 307 301 298 292 287 279 269 262
293 296 292 299 108 76 80 314 122 111 91 74 21 70 66 78 52 115 120 109 35 356 6 350 352 325 309 306 313 313 308 316 329 308 301 298 299 299 292 283 278 276 272 265
289 287 266 37 97 99 254 72 84 77 128 134 82 81 93 59 45 23 20 10 7 346 326 328 341 344 336 321 315 340 343 340 327 312 304 298 291 289 291 295 294 288 281 275
270 267 238 15 64 346 88 101 80 59 52 66 85 85 64 50 28 7 355 352 347 343 352 356 12 13 1 347 340 331 325 310 298 302 307 305 302 297 293 291 283 279 276 271
338 48 67 11 49 46 94 91 77 83 73 47 38 39 30 10 1 356 356 359 0 6 357 356 6 359 346 350 342 338 332 325 318 313 304 298 302 294 285 281 280 276 283 281
296 123 124 96 92 78 87 89 79 65 69 55 30 16 4 0 352 348 357 6 3 355 343 343 349 345 339 344 333 333 327 315 310 311 313 307 302 301 298 302 294 292 290 294
250 141 134 139 111 92 83 72 70 71 57 46 20 3 5 357 358 355 357 3 355 347 343 331 325 330 327 324 331 332 330 323 319 317 316 310 299 293 294 286 282 287 289 283
307 119 182 151 123 127 120 103 75 44 43 43 22 15 6 359 11 15 350 345 352 354 337 344 346 330 333 350 337 322 317 311 306 301 296 293 289 292 270 256 268 274 272 258
112 146 128 110 113 114 115 113 73 58 72 34 47 20 21 8 23 1 359 356 349 350 339 333 331 335 326 318 319 315 314 317 319 308 300 294 293 289 291 294 276 273 272 263
122 115 115 130 129 96 104 98 170 83 75 53 43 32 28 7 1 20 4 346 351 342 329 337 332 324 335 321 322 315 310 303 302 302 301 297 294 294 295 294 297 299 282 258
128 164 170 116 117 123 116 59 23 103 52 41 42 44 22 4 9 4 2 357 344 334 349 329 325 332 333 330 317 314 316 304 297 295 292 290 288 284 285 289 290 291 294 295
171 119 105 134 127 127 157 116 11 78 60 51 36 37 15 15 5 4 348 341 349 340 320 328 314 317 321 321 321 311 304 310 308 299 297 294 287 290 295 289 287 287 286 287
161 155 147 140 157 124 81 75 76 57 92 55 57 12 7 6 348 6 324 358 342 306 294 298 299 349 318 332 311 309 315 311 308 295 300 298 312 308 307 300 294 289 284 290
151 130 98 150 142 154 143 120 133 115 84 75 82 358 355 308 347 353 328 322 305 289 317 13 330 326 315 334 337 326 316 309 309 315 311 299 298 287 288 292 289 284 292 289
110 108 106 108 109 111 130 133 96 90 69 61 33 341 297 349 3 331 335 321 308 344 5 333 333 311 10 359 351 325 314 321 314 309 307 303 294 287 285 293 285 290 294 288
119 120 119 123 125 136 127 111 121 109 64 359 335 350 348 345 340 325 303 306 23 16 334 329 317 358 356 351 351 339 329 318 316 312 311 308 301 299 294 288 287 290 287 290
143 144 138 140 130 130 124 111 66 48 9 22 347 351 337 317 303 294 304 329 19 3 354 312 350 17 347 350 351 345 326 322 320 317 314 308 305 300 298 294 290 293 289 291
153 151 157 146 153 145 130 148 123 106 8 0 336 335 322 295 297 297 342 13 340 20 338 318 27 14 333 326 358 349 328 323 318 316 311 310 305 302 299 297 296 295 294 294
156 156 156 164 179 164 172 216 191 143 60 327 310 313 318 303 311 331 349 356 350 354 317 328 132 235 262 286 353 350 333 320 322 321 317 309 309 304 304 302 298 299 299 297
156 158 151 178 161 165 193 221 263 147 166 197 235 287 274 303 331 17 327 339 8 317 320 27 290 234 262 299 18 340 340 327 325 325 322 321 311 305 300 304 303 301 298 299
152 163 163 187 175 208 208 215 199 197 205 198 214 223 239 289 307 331 343 331 341 309 341 231 235 250 307 349 13 325 333 332 327 325 328 326 323 317 314 310 306 306 306 303
170 179 176 196 214 247 211 197 204 103 14 328 22 321 306 327 19 342 324 332 6 353 0 359 342 345 348 350 350 339 327 332 340 335 331 329 325 324 322 321 320 320 314 308
182 209 166 184 208 231 52 62 351 123 120 27 343 340 320 325 345 300 348 329 12 0 3 4 339 347 354 2 351 353 329 324 335 337 336 332 332 329 328 327 323 322 317 319